Race Coverage Navigation

TS # 25 / Greensburg, KS  2019

 


TS STATS
TS Distance 66.12 
Total Distance 1511.1 
Miles To Go 1559.18 
TS Climbing 1461 
Total Climbing
TS  Elevation
TS  Net Elevation 2316 
Map Filename Open Map 
Directions Filename  
Latitude 37.61 
Longitude -99.29 
Google Map  TimeStation Map 


TS Arrival Data
Arr Ord  #/Name Arrival DT TS Dst Avg This TS Avg Overall Ascending
 1 605 - Christian Echavarria  06/18/2019 9:44 66.12  7.19  9.36 
 2 161 - Seana Hogan  06/18/2019 3:03 66.12  14.02  9.75 
 3 608 - Elin Starup  06/18/2019 2:05 66.12  9.61  9.81 
 4 539 - Kari Rouvinen  06/17/2019 21:44 66.12  12.72  10.12 
 5 618 - GREGORY ROBINSON  06/17/2019 20:19 66.12  12.88  10.2 
 6 424 - Team i RON man Veterans supporting Veterans  06/17/2019 20:37 66.12  9.77  10.2 
 7 399 - Valerio Zamboni  06/17/2019 15:53 66.12  13.63  10.54 
 8 610 - Kabir Rachure  06/17/2019 11:04 66.12  9.89  10.89 
 9 411 - Geoff Brunner  06/17/2019 8:19 66.12  7.49  11.13 
 10 559 - Team Martin RAAM 2019 (Martin Bergmeister)  06/17/2019 7:24 66.12  7.19  11.2 
 11 510 - John C. Tarlton  06/17/2019 7:05 66.12  11.43  11.23 
 12 442 - Joe Barr  06/17/2019 5:23 66.12  9.23  11.37 
 13 611 - Marcelo Soares " MIXIRICA "  06/17/2019 3:28 66.12  12.02  11.52 
 14 615 - Philipp Amhof  06/17/2019 1:19 66.12  9.38  11.71 
 15 568 - Alexandra Meixner  06/17/2019 0:49 66.12  13.68  11.74 
 16 604 - Chieko Ozawa  06/17/2019 0:35 66.12  14.07  11.76 
 17 603 - Alan Bradley  06/17/2019 14:32 66.12  9.36  11.92 
 18 603 - Alan Bradley  06/16/2019 23:08 66.12  9.36  11.92 
 19 367 - Daniela Genovesi  06/16/2019 19:20 66.12  17.03  12.26 
 20 623 - Ultra Paka Racing Team (Daniel Polman)  06/16/2019 18:23 66.12  15.14  12.36 
 21 416 - Leah Goldstein  06/16/2019 17:07 66.12  17.32  12.49 
 22 622 - Thomas Odom-Team Kyle Pease Foundation  06/16/2019 15:01 66.12  15.03  12.71 
 23 329 - Peter Oyler  06/16/2019 15:02 66.12  18.98  12.76 
 24 612 - Markus K. Brandl  06/16/2019 10:35 66.12  12.96  13.22 
 25 529 - Isa Pulver  06/16/2019 8:31 66.12  10.25  13.44 
 26 617 - SOLO.kiwi (Craig Harper)  06/16/2019 8:17 66.12  7.53  13.49 
 27 T205 - Prevent Breast Cancer powered by Endomag  06/20/2019 6:28 66.12  16.74  13.57 
 28 T210 - Bike Wine Team  06/20/2019 4:46 66.12  15.14  13.79 
 29 609 - Jakob Olsen  06/16/2019 1:32 66.12  11.88  14.37 
 30 T203 - JPsDuo  06/19/2019 23:37 66.12  15.44  14.45 
 31 288 - Dave Haase  06/15/2019 23:51 66.12  16.53  14.64 
 32 T409 - Serpentine Golden Girls  06/19/2019 21:10 66.12  15.74  14.84 
 33 T207 - Team Life Time  06/19/2019 19:44 66.12  14.37  15.02 
 34 279 - Marko Baloh  06/15/2019 20:05 66.12  16.81  15.19 
 35 T200 - AIR RELAX GoPro TEAM BRASIL  06/19/2019 16:10 66.12  21.1  15.55 
 36 T417 - Team4RAAM 2019 powered by TGW Living Logistics  06/19/2019 14:40 66.12  21.21  15.87 
 37 T801 - Mind Over Matter  06/19/2019 13:10 66.12  18.8  16.13 
 38 T402 - EA/WFP RAAM Team  06/19/2019 11:48 66.12  19.26  16.32 
 39 T806 - Team SuperMarrow  06/19/2019 11:57 66.12  19.84  16.36 
 40 T413 - TEAM BRASIL - SKIPPER  06/19/2019 11:20 66.12  19.94  16.43 
 41 T204 - Lucan CRC  06/19/2019 10:16 66.12  18.12  16.57 
 42 T403 - EKJ Denmark  06/19/2019 9:27 66.12  15.56  16.75 
 43 T206 - Project Linear Acceleration  06/19/2019 9:11 66.12  18.37  16.77 
 44 T415 - TEAM FIRE VELO 935  06/19/2019 9:05 66.12  20.77  16.85 
 45 377 - Christoph Strasser  06/15/2019 9:38 66.12  17.71  16.98 
 46 T803 - Team EndoPark  06/19/2019 8:13 66.12  19.64  17.04 
 47 T202 - Integra Medical - BAA Racing  06/19/2019 7:30 66.12  18.98  17.08 
 48 T405 - High Rollers  06/19/2019 7:34 66.12  19.84  17.11 
 49 T414 - Brazil Nuts  06/19/2019 6:06 66.12  18.63  17.43 
 50 T410 - Soap-Aid  06/19/2019 5:22 66.12  20.04  17.56 
 51 T418 - The Opportunists  06/19/2019 3:33 66.12  18.03  17.97 
 52 T808 - Antonia's Friends 2019  06/19/2019 0:43 66.12  18.89  18.63 
 53 T406 - Operation Walk Midwest  06/19/2019 0:16 66.12  19.54  18.66 
 54 T400 - Cantastic4  06/18/2019 23:51 66.12  19.64  18.73 
 55 T408 - Radeln-fuer-Kinder (Cycling-for-Kids)  06/18/2019 22:43 66.12  18.98  19.03 
 56 T804 - Team FSHD Skyland Trail  06/18/2019 22:26 66.12  20.99  19.16 
 57 T416 - Team Rotary Raams Polio  06/18/2019 21:30 66.12  20.77  19.36 
 58 T412 - Team Aspect  06/18/2019 21:14 66.12  18.98  19.41 
 59 T802 - Scorchers  06/18/2019 20:43 66.12  21.33  19.57 
 60 T407 - Julian Becker   06/18/2019 19:03 66.12  23.47  19.94 
 61 T807 - Team ZOE International  06/18/2019 18:55 66.12  25.27  20.06 
 62 T201 - EAT WELL  06/18/2019 17:46 66.12  23.2  20.22 
 63 T805 - Team Oceanside  06/18/2019 17:57 66.12  24.19  20.32 
 64 T404 - Gentlemen of speed  06/18/2019 13:49 66.12  23.07  21.41 
 65 T401 - Data Techniques powered by Networks Centre  06/18/2019 13:33 66.12  23.07  21.47 
 66 T800 - Backstedt Racing Project 14  06/18/2019 10:33 66.12  23.34  22.53 
 67 T411 - team alpha - tischlerei groemmer  06/18/2019 10:02 66.12  22.67  22.66